Location: LDNL
(36.4545°S, 141.6685°E)
Time: 18:35:50
(UTC+10:00)

A-11 Canister half - Pass Details

Date: 28 January 2022
Orbit: 1527 x 1682 km, 47.3° (Epoch: 20 May)

Event Time Altitude Azimuth Distance (km) Brightness Sun altitude
Rises 01:21:47 0° 281° (WNW) 4,937 11.6 -34.9°
Reaches altitude 10° 01:25:05 10° 277° (W) 3,946 11.1 -35.0°
Maximum altitude 01:35:01 56° 200° (SSW) 1,931 9.6 -35.1°
Drops below altitude 10° 01:44:46 10° 122° (ESE) 3,867 11.4 -35.2°
Sets 01:47:58 0° 117° (ESE) 4,832 11.9 -35.2°
